FENGYUN 1C DEB, 30273

Orbit data source: Space-Track

FENGYUN 1C DEB, 30273 is space debris in SSO originally from a launch on Mon, 10 May 1999 UTC launched from the Taiyaun Space Center, China (TSC). Fengyun 1C debris stems from the Chinese weather satellite Fengyun-1C, which was intentionally destroyed by a Chinese anti-satellite missile in 2007. This event dramatically increased the amount of space debris, with thousands of trackable fragments posing hazards to satellites and human spaceflight. The Fengyun 1C debris cloud has become a focal point in discussions about space sustainability and the need for international regulations to prevent the creation of new debris.

Loading next visibility...
Identifier
30273, 1999-025YJ
Orbit
SSO
Country
Flag of CNCN / PRC
Related business
Manufacturer
Unknown
Mission
Spacecraft
Bus & Motor
Unknown
Mass
Unknown
Launch date (UTC)
1999-05-10 (27 years ago)
Launch vehicle
Unknown
Launch site
Taiyaun Space Center, China (TSC)
Object type
Payload
Rocket body
Debris
Shape & HBR
Unknown shape, 0.2 m
Radar Cross Section
Medium (>0.1 m² and <1 m²)

Expand to show TLE details & history
Last TLE update: 14 hours ago

TLE from 14 hours ago
0 FENGYUN 1C DEB
1 30273U 99025YJ  26207.98442747  .00000946  00000-0  62631-3 0  9992
2 30273  98.8304 220.8865 0060410 340.0148  81.7369 14.03026954997015
Epoch: 2026-07-26T23:37Z
TLE epoch observation values (Epoch: 2026-07-26T23:37:34.533Z)
Latitude
61.25773°
Longitude
-94.54781°
Altitude
887.713 km
Speed
7.417 km/s
True Right ascension
13h 38m 04s
True Declination
61° 06' 54"
Sunlit
Object was in daylight at epoch
Visualization orbit readout
Latitude
Unknown
Longitude
Unknown
Altitude
Unknown
Speed
Unknown
Apparent Right ascension
Unknown
Apparent Declination
Unknown
Sunlit
N/A
Visualization observer readout
Local Sidereal Time
03:00:37
Azimuth
Unknown
Elevation
Unknown
Doppler factor
Unknown
Orbital elements
Apogee altitude
924.369 km
Perigee altitude
836.67 km
Semi-major axis
7,258.656 km
Eccentricity
0.00604
Inclination
98.8304°
RAAN
220.8865°
Arg. of periapsis
340.0148°
True anomaly
82.42269°
Mean anomaly
81.7369°
Eccentric anomaly
82.07972°
Mean motion
3.50961 °/min
Orbital period
102.58 mins
BSTAR
0.00062631
Loading maneuver chart data...
Computing Atmospheric mass density...
Loading historical data...
Loading historical data...
Loading historical data...
Loading historical data...
Loading historical data...
Loading historical data...
Loading historical data...

Documentation

Showing up to 5 results
|